Flag for Egypt Weather past 2 weeks in Al Jizah, Egypt

Now
86 °F

Scattered clouds.


Feels Like: 85 °F
Forecast: 69 / 94 °F
Wind: 13 mph from North

Location: Cairo Airport

Current Time: Sep 21, 2014 at 5:32:25 PM

Latest Report: Sep 21, 2014 at 5:00 PM


Visibility: N/A

Pressure: 29.89 "Hg

Humidity: 40%

Dew point: 59 °F

Location of Al JizahLocation

Historic Weather in Al Jizah — Graph

°F

Al Jizah temperature yesterday

Maximum temperature yesterday: 88 °F (at 3:00 PM)
Minimum temperature yesterday: 73 °F (at 3:30 AM)
Average temperature yesterday: 79 °F

Past Weeks' High & Low Weather Summary

 TemperatureHumidityPressure
High102 °F (Sep 16, 4:00 PM)78% (Sep 9, 7:00 AM)30.04 "Hg (Sep 9, 7:00 AM)
Low73 °F (Sep 13, 6:30 AM)14% (Sep 16, 3:00 PM)29.74 "Hg (Sep 17, 12:30 AM)
Average83 °F53%29.91 "Hg
* Reported Sep 6 4:00 PM — Sep 21 4:30 PM, Al Jizah, Weather by CustomWeather, © 2014

Note: Actual official high and low records may vary slightly from our data, if they occured in-between our weather recording intervals... More about our weather records

Advertising

Al Jizah weather history for previous 24 hours

 ConditionsComfort  
Time TempWeatherWind HumidityBarometerVisibility
4:30 PM
Sep 21
88 °FSunny.9 mph35%29.89 "Hg10 mi
4:00 PM88 °FSunny.10 mph35%29.89 "Hg10 mi
3:30 PM90 °FSunny.13 mph36%29.89 "Hg10 mi
3:00 PM90 °FSunny.7 mph33%29.89 "Hg10 mi
2:30 PM88 °FScattered clouds.2 mph35%29.92 "HgN/A
2:00 PM86 °FScattered clouds.9 mph40%29.92 "HgN/A
1:00 PM84 °FPartly sunny.10 mph43%29.92 "HgN/A
12:30 PM82 °FPartly sunny.7 mph51%29.95 "HgN/A
12:00 PM82 °FPartly sunny.7 mph51%29.95 "HgN/A
11:30 AM82 °FPartly sunny.6 mph51%29.95 "HgN/A
11:00 AM81 °FPartly sunny.6 mph58%29.95 "HgN/A
10:30 AM79 °FPartly sunny.6 mph61%29.95 "HgN/A
10:00 AM79 °FScattered clouds.6 mph61%29.95 "Hg4 mi
9:30 AM77 °FHaze.7 mph69%29.95 "Hg2 mi
9:00 AM75 °FHaze.6 mph69%29.95 "Hg2 mi
8:30 AM75 °FHaze.No wind74%29.95 "Hg2 mi
8:00 AM73 °FHaze.6 mph78%29.95 "Hg2 mi
7:30 AM73 °FHaze.5 mph74%29.95 "Hg2 mi
7:00 AM73 °FHaze.No wind74%29.95 "Hg2 mi
6:30 AM73 °FClear.No wind74%29.95 "Hg4 mi
6:00 AM73 °FClear.5 mph74%29.92 "Hg4 mi
5:30 AM73 °FClear.No wind74%29.92 "Hg4 mi
5:00 AM73 °FClear.No wind74%29.92 "Hg4 mi
4:00 AM73 °FClear.6 mph74%29.92 "Hg4 mi
3:30 AM73 °FClear.6 mph69%29.92 "Hg4 mi
3:00 AM75 °FClear.6 mph65%29.95 "Hg4 mi
2:30 AM73 °FClear.3 mph69%29.95 "Hg4 mi
2:00 AM73 °FClear.3 mph69%29.95 "Hg4 mi
1:30 AM75 °FClear.5 mph65%29.95 "Hg10 mi
1:00 AM75 °FClear.5 mph65%29.95 "Hg10 mi
12:30 AM75 °FClear.3 mph65%29.98 "Hg10 mi
11:30 PM
Sep 20
77 °FClear.7 mph61%29.98 "Hg10 mi
11:00 PM77 °FClear.7 mph61%29.98 "Hg10 mi
10:30 PM77 °FClear.8 mph57%29.98 "Hg10 mi
10:00 PM79 °FClear.9 mph54%29.98 "Hg10 mi
9:30 PM79 °FClear.10 mph54%29.98 "Hg10 mi
9:00 PM81 °FClear.12 mph51%29.95 "Hg10 mi
Weather by CustomWeather, © 2014

See weather overviewHow to use our weather pages